Regional Weather Roundup
Issued by NWS

Home | Current Version | Previous Version | Text Only | Print | Product List | Glossary On
Versions: 1 2 3 4 5 6 7 8 9 10 11 12 13 14 15 16 17 18 19 20 21 22 23 24 25 26 27 28 29 30 31 32 33 34 35 36 37 38 39 40 41 42 43 44 45 46 47 48 49 50
000
ASUS43 KLMK 301610
RWRKY
KENTUCKY REGIONAL WEATHER ROUNDUP
NATIONAL WEATHER SERVICE LOUISVILLE KY
1200 PM EDT FRI SEP 30 2016

NOTE "FAIR" INDICATES FEW OR NO CLOUDS BELOW 12,000 FEET
WITH NO SIGNIFICANT WEATHER AND/OR OBSTRUCTIONS TO VISIBILITY.

KYZ001>023-026-027-061>063-070>075-301700-
WESTERN AND SOUTH CENTRAL KENTUCKY

CITY           SKY/WX    TMP DP  RH WIND       PRES   REMARKS
PADUCAH        CLOUDY    64  56  75 W6        30.07F
HENDERSON      PTSUNNY   63  57  82 W6        30.03S
OWENSBORO      CLOUDY   N/A N/A N/A N9        30.03F
HOPKINSVILLE   CLOUDY    64  57  77 W13       30.05F
BOWLING GREEN  CLOUDY    58  55  90 SW8       30.05F
GLASGOW        HVY RAIN  52  52 100 S3        30.06F
$$

KYZ024-025-028>034-038-045-046-053-301700-
NORTH CENTRAL KENTUCKY

CITY           SKY/WX    TMP DP  RH WIND       PRES   REMARKS
LOUISVILLE/SDF CLOUDY    58  53  84 E3        30.05S
LOUISVILLE/LOU CLOUDY    58  53  84 CALM      30.06S
FORT KNOX      LGT RAIN  57  55  94 SE6       30.03S FOG
$$

KYZ035>037-039>044-047>052-055>060-089>105-301700-
NORTHEAST KENTUCKY

CITY           SKY/WX    TMP DP  RH WIND       PRES   REMARKS
LEXINGTON      CLOUDY    57  53  86 W5        30.06S
COVINGTON      CLOUDY    62  57  83 VRB3      30.03F
FRANKFORT      PTSUNNY   60  51  72 CALM      30.04S
$$

KYZ054-064>069-076>088-106>120-301700-
SOUTHEAST KENTUCKY

CITY           SKY/WX    TMP DP  RH WIND       PRES   REMARKS
JACKSON        CLOUDY    56  53  90 VRB3      30.05F
LONDON         CLOUDY    53  49  86 CALM      30.07S
SOMERSET       CLOUDY    54  52  94 SW6       30.08S
MIDDLESBORO    SUNNY     62  50  66 CALM      30.06F
MONTICELLO     CLOUDY    58  52  80 N8        30.08R
$$





USA.gov is the U.S. government's official web portal to all federal, state and local government web resources and services.